| time (UTC) | temp F | wind direction | speed knots | gust knots | rain 1hr in | rain 24hr in | rain mn in | humidity % | barometer mb |
| 20260904125528 | 52 | 308 | 3.5 | 7.0 | 0.00 | 0.00 | 0.00 | 85 | 1018.3 |
| 20260904124528 | 52 | 308 | 3.5 | 6.1 | 0.00 | 0.00 | 0.00 | 85 | 1018.5 |
| 20260904123541 | 52 | 311 | 3.5 | 7.8 | 0.00 | 0.00 | 0.00 | 84 | 1018.6 |
| 20260904122518 | 52 | 299 | 3.5 | 7.0 | 0.00 | 0.00 | 0.00 | 84 | 1018.7 |
| 20260904121525 | 52 | 303 | 3.5 | 6.1 | 0.00 | 0.00 | 0.00 | 84 | 1019.0 |
| 20260904120533 | 53 | 312 | 3.5 | 7.0 | 0.00 | 0.00 | 0.00 | 82 | 1018.9 |
| 20260904115519 | 53 | 302 | 3.5 | 6.1 | 0.00 | 0.00 | 0.00 | 82 | 1019.0 |
| 20260904114525 | 53 | 297 | 3.5 | 7.0 | 0.00 | 0.00 | 0.00 | 81 | 1019.1 |
| 20260904113531 | 54 | 292 | 3.5 | 7.0 | 0.00 | 0.00 | 0.00 | 81 | 1019.1 |
| 20260904112518 | 54 | 301 | 3.5 | 7.0 | 0.00 | 0.00 | 0.00 | 80 | 1019.3 |
| 20260904111525 | 54 | 296 | 4.3 | 7.8 | 0.00 | 0.00 | 0.00 | 79 | 1019.4 |
| 20260904110532 | 54 | 300 | 5.2 | 9.6 | 0.00 | 0.00 | 0.00 | 80 | 1019.4 |
| 20260904105518 | 54 | 296 | 4.3 | 7.8 | 0.00 | 0.00 | 0.00 | 80 | 1019.5 |
| 20260904104525 | 54 | 301 | 5.2 | 9.6 | 0.00 | 0.00 | 0.00 | 80 | 1019.5 |
| 20260904103531 | 54 | 305 | 4.3 | 7.8 | 0.00 | 0.00 | 0.00 | 80 | 1019.5 |
| 20260904102518 | 54 | 307 | 5.2 | 8.7 | 0.00 | 0.00 | 0.00 | 79 | 1019.5 |
| 20260904101536 | 54 | 314 | 6.1 | 9.6 | 0.00 | 0.00 | 0.00 | 79 | 1019.4 |
| 20260904100532 | 54 | 308 | 5.2 | 9.6 | 0.00 | 0.00 | 0.00 | 79 | 1019.3 |
| 20260904095518 | 54 | 309 | 5.2 | 10.4 | 0.00 | 0.00 | 0.00 | 78 | 1019.2 |
| 20260904094525 | 54 | 313 | 6.1 | 11.3 | 0.00 | 0.00 | 0.00 | 78 | 1019.1 |
| 20260904093531 | 54 | 304 | 4.3 | 9.6 | 0.00 | 0.00 | 0.00 | 77 | 1019.3 |
| 20260904092516 | 54 | 307 | 4.3 | 8.7 | 0.00 | 0.00 | 0.00 | 77 | 1019.2 |
| 20260904091523 | 54 | 318 | 4.3 | 7.8 | 0.00 | 0.00 | 0.00 | 76 | 1019.2 |
| 20260904090530 | 55 | 305 | 4.3 | 8.7 | 0.00 | 0.00 | 0.00 | 75 | 1019.4 |
| 20260904085517 | 55 | 306 | 4.3 | 7.8 | 0.00 | 0.00 | 0.00 | 72 | 1019.3 |
| 20260904084524 | 55 | 292 | 4.3 | 10.4 | 0.00 | 0.00 | 0.00 | 72 | 1019.3 |
| 20260904083530 | 55 | 303 | 6.1 | 12.2 | 0.00 | 0.00 | 0.00 | 71 | 1019.2 |
| 20260904082516 | 55 | 291 | 4.3 | 10.4 | 0.00 | 0.00 | 0.00 | 71 | 1019.2 |
| 20260904081531 | 56 | 291 | 5.2 | 9.6 | 0.00 | 0.00 | 0.00 | 69 | 1019.0 |
| 20260904080528 | 56 | 278 | 4.3 | 7.8 | 0.00 | 0.00 | 0.00 | 70 | 1019.0 |
| 20260904075535 | 56 | 297 | 5.2 | 9.6 | 0.00 | 0.00 | 0.00 | 69 | 1019.0 |
| 20260904074519 | 56 | 275 | 5.2 | 7.0 | 0.00 | 0.00 | 0.00 | 68 | 1018.8 |
| 20260904073524 | 57 | 287 | 5.2 | 11.3 | 0.00 | 0.00 | 0.00 | 66 | 1018.9 |
| 20260904072529 | 57 | 280 | 6.1 | 13.9 | 0.00 | 0.00 | 0.00 | 65 | 1018.8 |
| 20260904071535 | 57 | 283 | 4.3 | 7.8 | 0.00 | 0.00 | 0.00 | 64 | 1018.7 |
| 20260904070523 | 58 | 281 | 5.2 | 9.6 | 0.00 | 0.00 | 0.00 | 64 | 1018.5 |
| 20260904065542 | 58 | 284 | 5.2 | 9.6 | 0.00 | 0.00 | 0.00 | 63 | 1018.3 |
| 20260904064535 | 58 | 277 | 5.2 | 7.8 | 0.00 | 0.00 | 0.00 | 62 | 1018.3 |
| 20260904063519 | 58 | 259 | 3.5 | 7.0 | 0.00 | 0.00 | 0.00 | 62 | 1018.4 |
| 20260904062528 | 58 | 270 | 7.0 | 13.0 | 0.00 | 0.00 | 0.00 | 61 | 1018.2 |
| 20260904061532 | 59 | 274 | 4.3 | 8.7 | 0.00 | 0.00 | 0.00 | 60 | 1018.1 |
| 20260904060518 | 58 | 272 | 5.2 | 11.3 | 0.00 | 0.00 | 0.00 | 59 | 1018.2 |
| 20260904055524 | 58 | 280 | 4.3 | 10.4 | 0.00 | 0.00 | 0.00 | 59 | 1018.3 |
| 20260904054530 | 58 | 290 | 5.2 | 10.4 | 0.00 | 0.00 | 0.00 | 58 | 1018.2 |
| 20260904053516 | 59 | 279 | 6.1 | 11.3 | 0.00 | 0.00 | 0.00 | 57 | 1018.2 |
| 20260904052523 | 59 | 261 | 7.0 | 10.4 | 0.00 | 0.00 | 0.00 | 56 | 1018.2 |
| 20260904051529 | 59 | 262 | 7.0 | 14.8 | 0.00 | 0.00 | 0.00 | 56 | 1018.4 |
| 20260904050516 | 59 | 275 | 8.7 | 16.5 | 0.00 | 0.00 | 0.00 | 54 | 1018.2 |
| 20260904045523 | 60 | 264 | 5.2 | 12.2 | 0.00 | 0.00 | 0.00 | 52 | 1018.2 |
| 20260904044531 | 60 | 261 | 7.0 | 13.0 | 0.00 | 0.00 | 0.00 | 50 | 1018.3 |
| 20260904043517 | 61 | 299 | 8.7 | 14.8 | 0.00 | 0.00 | 0.00 | 50 | 1018.3 |
| 20260904042522 | 60 | 280 | 7.8 | 14.8 | 0.00 | 0.00 | 0.00 | 51 | 1018.4 |
| 20260904041529 | 60 | 272 | 6.1 | 11.3 | 0.00 | 0.00 | 0.00 | 52 | 1018.3 |
| 20260904040535 | 60 | 293 | 7.0 | 13.0 | 0.00 | 0.00 | 0.00 | 51 | 1018.2 |
| 20260904035521 | 60 | 258 | 6.1 | 9.6 | 0.00 | 0.00 | 0.00 | 51 | 1018.2 |
| 20260904034528 | 61 | 289 | 6.1 | 13.0 | 0.00 | 0.00 | 0.00 | 50 | 1018.4 |
| 20260904033533 | 60 | 285 | 7.0 | 11.3 | 0.00 | 0.00 | 0.00 | 51 | 1018.2 |
| 20260904032530 | 60 | 307 | 7.0 | 11.3 | 0.00 | 0.00 | 0.00 | 50 | 1018.4 |
| 20260904031521 | 60 | 296 | 5.2 | 8.7 | 0.00 | 0.00 | 0.00 | 51 | 1018.6 |
| 20260904030536 | 60 | 300 | 7.0 | 12.2 | 0.00 | 0.00 | 0.00 | 49 | 1018.6 |
| 20260904025533 | 59 | 239 | 4.3 | 8.7 | 0.00 | 0.00 | 0.00 | 50 | 1019.0 |
| 20260904024519 | 58 | 270 | 3.5 | 7.0 | 0.00 | 0.00 | 0.00 | 54 | 1019.2 |
| 20260904023524 | 59 | 247 | 4.3 | 7.8 | 0.00 | 0.00 | 0.00 | 54 | 1019.7 |
| 20260904022530 | 59 | 272 | 7.0 | 13.0 | 0.00 | 0.00 | 0.00 | 52 | 1020.0 |
| 20260904021517 | 60 | 278 | 6.1 | 13.9 | 0.00 | 0.00 | 0.00 | 54 | 1020.0 |
| 20260904020531 | 59 | 262 | 5.2 | 11.3 | 0.00 | 0.00 | 0.00 | 56 | 1020.3 |
| 20260904015531 | 60 | 241 | 5.2 | 11.3 | 0.00 | 0.00 | 0.00 | 57 | 1020.4 |
| 20260904014517 | 58 | 290 | 7.8 | 12.2 | 0.00 | 0.00 | 0.00 | 57 | 1020.7 |
| 20260904013524 | 58 | 274 | 6.1 | 12.2 | 0.00 | 0.00 | 0.00 | 59 | 1020.7 |
| 20260904012530 | 58 | 303 | 7.8 | 14.8 | 0.00 | 0.00 | 0.00 | 57 | 1020.5 |
| 20260904011516 | 58 | 306 | 5.2 | 10.4 | 0.00 | 0.00 | 0.00 | 58 | 1020.7 |
| 20260904010523 | 58 | 261 | 3.5 | 7.0 | 0.00 | 0.00 | 0.00 | 55 | 1020.7 |
| 20260904005531 | 58 | 269 | 5.2 | 9.6 | 0.00 | 0.00 | 0.00 | 54 | 1020.7 |
| 20260904004535 | 58 | 291 | 5.2 | 11.3 | 0.00 | 0.00 | 0.00 | 64 | 1020.7 |
| 20260904003521 | 56 | 333 | 3.5 | 7.8 | 0.00 | 0.00 | 0.00 | 71 | 1020.8 |
| 20260904002528 | 56 | 315 | 5.2 | 9.6 | 0.00 | 0.00 | 0.00 | 65 | 1021.0 |
| 20260904001535 | 56 | 316 | 4.3 | 7.0 | 0.00 | 0.00 | 0.00 | 69 | 1021.0 |
| 20260904000521 | 55 | 329 | 1.7 | 6.1 | 0.00 | 0.00 | 0.00 | 74 | 1021.2 |
| 20260903235529 | 53 | 332 | 3.5 | 6.1 | 0.00 | 0.00 | 0.00 | 79 | 1021.6 |
| 20260903234534 | 53 | 322 | 3.5 | 6.1 | 0.00 | 0.00 | 0.00 | 82 | 1021.7 |
| 20260903233526 | 52 | 321 | 3.5 | 8.7 | 0.00 | 0.00 | 0.00 | 84 | 1021.9 |
| 20260903232534 | 52 | 320 | 6.1 | 8.7 | 0.00 | 0.00 | 0.00 | 85 | 1021.8 |
| 20260903231533 | 52 | 348 | 3.5 | 6.1 | 0.00 | 0.00 | 0.00 | 86 | 1021.7 |
| 20260903230518 | 52 | 328 | 4.3 | 9.6 | 0.00 | 0.00 | 0.00 | 85 | 1021.7 |
| 20260903225523 | 51 | 335 | 4.3 | 7.8 | 0.00 | 0.00 | 0.00 | 87 | 1021.8 |
| 20260903224529 | 50 | 327 | 4.3 | 7.8 | 0.00 | 0.00 | 0.00 | 88 | 1021.6 |
| 20260903223524 | 49 | 306 | 2.6 | 6.1 | 0.00 | 0.00 | 0.00 | 90 | 1021.6 |
| 20260903222529 | 50 | 308 | 3.5 | 5.2 | 0.00 | 0.00 | 0.00 | 88 | 1021.7 |
| 20260903221535 | 49 | 296 | 3.5 | 7.0 | 0.00 | 0.00 | 0.00 | 88 | 1021.5 |
| 20260903220520 | 50 | 305 | 3.5 | 7.0 | 0.00 | 0.00 | 0.00 | 87 | 1021.5 |
| 20260903215528 | 49 | 349 | 0.9 | 2.6 | 0.00 | 0.00 | 0.00 | 88 | 1021.2 |
| 20260903214533 | 50 | 330 | 2.6 | 5.2 | 0.00 | 0.00 | 0.00 | 87 | 1020.7 |
| 20260903213519 | 49 | 7 | 1.7 | 3.5 | 0.00 | 0.00 | 0.00 | 90 | 1020.4 |
| 20260903212523 | 48 | 10 | 1.7 | 3.5 | 0.00 | 0.00 | 0.00 | 92 | 1020.7 |
| 20260903211529 | 49 | 24 | 1.7 | 3.5 | 0.00 | 0.00 | 0.00 | 93 | 1020.5 |
| 20260903210536 | 49 | 13 | 0.9 | 0.9 | 0.00 | 0.00 | 0.00 | 93 | 1020.3 |
| 20260903205529 | 49 | 335 | 0.9 | 2.6 | 0.00 | 0.00 | 0.00 | 93 | 1020.3 |
| 20260903205020 | 49 | 332 | 0.9 | 2.6 | 0.00 | 0.00 | 0.00 | 93 | 1020.1 |
| 20260903204535 | 49 | 345 | 0.9 | 2.6 | 0.00 | 0.00 | 0.00 | 94 | 1020.0 |
| 20260903203520 | 48 | 355 | 0.9 | 2.6 | 0.00 | 0.00 | 0.00 | 94 | 1020.2 |
| 20260903202527 | 48 | 17 | 0.9 | 2.6 | 0.00 | 0.00 | 0.00 | 94 | 1020.1 |
| 20260903201534 | 48 | 199 | 0.0 | 1.7 | 0.00 | 0.00 | 0.00 | 94 | 1019.9 |
| 20260903201018 | 48 | 16 | 0.9 | 2.6 | 0.00 | 0.00 | 0.00 | 93 | 1019.9 |
| 20260903200024 | 48 | 19 | 1.7 | 2.6 | 0.00 | 0.00 | 0.00 | 93 | 1020.0 |
| 20260903195521 | 48 | 360 | 0.9 | 2.6 | 0.00 | 0.00 | 0.00 | 93 | 1020.0 |
| 20260903194535 | 48 | 349 | 1.7 | 2.6 | 0.00 | 0.00 | 0.00 | 93 | 1019.9 |
| 20260903194033 | 48 | 354 | 1.7 | 2.6 | 0.00 | 0.00 | 0.00 | 93 | 1019.7 |
| 20260903193019 | 48 | 3 | 1.7 | 3.5 | 0.00 | 0.00 | 0.00 | 93 | 1019.6 |
| 20260903192027 | 48 | 12 | 1.7 | 2.6 | 0.00 | 0.00 | 0.00 | 93 | 1019.6 |
| 20260903191033 | 48 | 7 | 0.9 | 2.6 | 0.00 | 0.00 | 0.00 | 93 | 1019.5 |
| 20260903154519 | 52 | 7 | 1.7 | 3.5 | 0.00 | 0.00 | 0.00 | 82 | 1019.0 |
| 20260903153535 | 54 | 340 | 1.7 | 5.2 | 0.00 | 0.00 | 0.00 | 71 | 1019.1 |
| 20260903152517 | 53 | 262 | 3.5 | 6.1 | 0.00 | 0.00 | 0.00 | 71 | 1019.0 |
| 20260903151526 | 53 | 281 | 2.6 | 5.2 | 0.00 | 0.00 | 0.00 | 74 | 1019.0 |
| 20260903150534 | 53 | 325 | 2.6 | 5.2 | 0.00 | 0.00 | 0.00 | 77 | 1019.2 |
| 20260903145522 | 53 | 284 | 1.7 | 2.6 | 0.00 | 0.00 | 0.00 | 78 | 1019.1 |
| 20260903144537 | 53 | 335 | 3.5 | 7.8 | 0.00 | 0.00 | 0.00 | 79 | 1019.2 |
| 20260903143518 | 53 | 322 | 1.7 | 3.5 | 0.00 | 0.00 | 0.00 | 78 | 1019.1 |
| 20260903142524 | 53 | 294 | 2.6 | 6.1 | 0.00 | 0.00 | 0.00 | 78 | 1019.2 |
| 20260903141531 | 53 | 281 | 2.6 | 5.2 | 0.00 | 0.00 | 0.00 | 77 | 1019.2 |
| 20260903140535 | 53 | 305 | 2.6 | 7.8 | 0.00 | 0.00 | 0.00 | 76 | 1019.3 |
| 20260903135522 | 53 | 276 | 2.6 | 7.0 | 0.00 | 0.00 | 0.00 | 74 | 1019.2 |
| 20260903134528 | 53 | 217 | 1.7 | 4.3 | 0.00 | 0.00 | 0.00 | 72 | 1019.2 |
| 20260903133534 | 54 | 242 | 1.7 | 4.3 | 0.00 | 0.00 | 0.00 | 69 | 1019.3 |
| 20260903132519 | 54 | 288 | 1.7 | 4.3 | 0.00 | 0.00 | 0.00 | 68 | 1019.3 |
| 20260903131534 | 54 | 287 | 2.6 | 6.1 | 0.00 | 0.00 | 0.00 | 67 | 1019.3 |
| 20260903130531 | 54 | 281 | 3.5 | 7.8 | 0.00 | 0.00 | 0.00 | 66 | 1019.3 |